Voltar ao catálogo

WESTFORD NEEDLES

AtivoHEO
NORAD 2362·DEBRIS·🇺🇸 United States

Lançado May 9, 1963 de Vandenberg Space Force Base

Loading…

Próximas Passagens (próximas 24 horas)

TLE

AtualizadoSource: Space-Track

Época: Sep 14, 2026, 01:11 UTC

1 02362U 63014M   26257.04948139  .00000697  00000-0  55245-2 0  9992
2 02362  85.1143 297.9192 2583165 279.5850  52.5309  8.86409842 14628

Acompanhe WESTFORD NEEDLES em tempo real com AllMySat

Download on the App Store